DMSP 5D-2 F11 DEB, 28317

Orbit data source: Space-Track

DMSP 5D-2 F11 DEB, 28317 is space debris in SSO originally from a launch on Thu, 28 Nov 1991 UTC launched from the Air Force Western Test Range (AFWTR). Debris objects in space refer to the collection of defunct objects orbiting the Earth. Examples of debris include non-operational satellites, rocket bodies, and fragments generated from explosions, collisions, or faulty payload assembly.

Loading next visibility...
Identifier
28317, 1991-082AE
Orbit
SSO
Country
Flag of USUS
Related business
Manufacturer
Unknown
Mission
Spacecraft
Bus & Motor
Unknown
Mass
Unknown
Launch date (UTC)
1991-11-28 (35 years ago)
Launch vehicle
Unknown
Launch site
Air Force Western Test Range (AFWTR)
Object type
Payload
Rocket body
Debris
Shape & HBR
Unknown shape, 0.1 m
Radar Cross Section
Medium (>0.1 m² and <1 m²)

Expand to show TLE details & history
Last TLE update: 2 days ago

TLE from 2 days ago
0 DMSP 5D-2 F11 DEB
1 28317U 91082AE  26207.51770425  .00000863  00000-0  39437-3 0  9995
2 28317  98.8600 226.8837 0118150 176.8890 344.3232 14.20472165148797
Epoch: 2026-07-26T12:25Z
TLE epoch observation values (Epoch: 2026-07-26T12:25:29.647Z)
Latitude
18.91987°
Longitude
-80.65797°
Altitude
744.303 km
Speed
7.527 km/s
True Right ascension
03h 19m 43s
True Declination
18° 48' 52"
Sunlit
Object was in daylight at epoch
Visualization orbit readout
Latitude
Unknown
Longitude
Unknown
Altitude
Unknown
Speed
Unknown
Apparent Right ascension
Unknown
Apparent Declination
Unknown
Sunlit
N/A
Visualization observer readout
Local Sidereal Time
19:43:58
Azimuth
Unknown
Elevation
Unknown
Doppler factor
Unknown
Orbital elements
Apogee altitude
905.978 km
Perigee altitude
735.864 km
Semi-major axis
7,199.058 km
Eccentricity
0.01182
Inclination
98.86°
RAAN
226.8837°
Arg. of periapsis
176.889°
True anomaly
343.95209°
Mean anomaly
344.3232°
Eccentric anomaly
344.13818°
Mean motion
3.55328 °/min
Orbital period
101.31 mins
BSTAR
0.00039437
Loading maneuver chart data...
Computing Atmospheric mass density...

Documentation

Showing up to 5 results
|